Location: *
(44.3683°N, 6.6958°E)
Time: 13:14:42
(UTC+00:00)

Starlink (trailer) - Pass Details

Date: 14 October 2019
Orbit: 549 x 551 km, 53.0° (Epoch: 16 November)

Event Time Altitude Azimuth Distance (km) Brightness Sun altitude
Rises 17:31:33 0° 234° (SW) 2,705 8.3 -7.9°
Reaches altitude 10° 17:33:46 10° 234° (SW) 1,815 7.3 -8.3°
Maximum altitude 17:37:53 89° 160° (SSE) 554 3.6 -9.1°
Drops below altitude 10° 17:42:03 10° 56° (ENE) 1,825 5.8 -9.8°
Enters shadow 17:42:10 - 56° (ENE) 1,869 5.8 -9.8°
